Data supplied by UK-AIR on 17/3/2021
All Data GMT hour ending 
Status: R =Ratified P=Provisional,P*=As supplied
,,Cannock A5190 Roadside,,,,,,,,,,,,,,,,,,,,,,,
Date,time,"Nitric oxide",status,unit,"Nitrogen dioxide",status,unit,"Nitrogen oxides as nitrogen dioxide",status,unit
 
01-01-2020,01:00,4.60000,R,ugm-3,17.74201,R,ugm-3,24.79525,R,ugm-3
01-01-2020,02:00,8.59474,R,ugm-3,20.15188,R,ugm-3,33.33030,R,ugm-3
01-01-2020,03:00,7.35395,R,ugm-3,21.33795,R,ugm-3,32.61385,R,ugm-3
01-01-2020,04:00,5.44737,R,ugm-3,18.04695,R,ugm-3,26.39946,R,ugm-3
01-01-2020,05:00,2.17895,R,ugm-3,15.30215,R,ugm-3,18.64316,R,ugm-3
01-01-2020,06:00,2.81448,R,ugm-3,15.26219,R,ugm-3,19.57765,R,ugm-3
01-01-2020,07:00,2.42105,R,ugm-3,18.20166,R,ugm-3,21.91389,R,ugm-3
01-01-2020,08:00,19.21711,R,ugm-3,34.87411,R,ugm-3,64.33993,R,ugm-3
01-01-2020,09:00,10.28948,R,ugm-3,31.97568,R,ugm-3,47.75266,R,ugm-3
01-01-2020,10:00,4.78158,R,ugm-3,24.02063,R,ugm-3,31.35228,R,ugm-3
01-01-2020,11:00,2.96579,R,ugm-3,18.20745,R,ugm-3,22.75494,R,ugm-3
01-01-2020,12:00,2.60263,R,ugm-3,17.31582,R,ugm-3,21.30647,R,ugm-3
01-01-2020,13:00,4.53948,R,ugm-3,19.20541,R,ugm-3,26.16584,R,ugm-3
01-01-2020,14:00,3.17763,R,ugm-3,16.62107,R,ugm-3,21.49337,R,ugm-3
01-01-2020,15:00,3.45000,R,ugm-3,19.24055,R,ugm-3,24.53048,R,ugm-3
01-01-2020,16:00,2.51184,R,ugm-3,17.54848,R,ugm-3,21.39992,R,ugm-3
01-01-2020,17:00,1.99737,R,ugm-3,17.82336,R,ugm-3,20.88595,R,ugm-3
01-01-2020,18:00,2.11842,R,ugm-3,18.47879,R,ugm-3,21.72699,R,ugm-3
01-01-2020,19:00,1.66447,R,ugm-3,21.97832,R,ugm-3,24.53048,R,ugm-3
01-01-2020,20:00,1.18026,R,ugm-3,20.10418,R,ugm-3,21.91389,R,ugm-3
01-01-2020,21:00,1.48290,R,ugm-3,18.14496,R,ugm-3,20.41870,R,ugm-3
01-01-2020,22:00,1.18026,R,ugm-3,17.06707,R,ugm-3,18.87678,R,ugm-3
01-01-2020,23:00,1.66447,R,ugm-3,17.25912,R,ugm-3,19.81128,R,ugm-3
01-01-2020,24:00,1.18026,R,ugm-3,14.96446,R,ugm-3,16.77417,R,ugm-3
02-01-2020,01:00,1.25107,R,ugm-3,13.89883,R,ugm-3,15.81710,R,ugm-3
02-01-2020,02:00,0.84750,R,ugm-3,9.78495,R,ugm-3,11.08443,R,ugm-3
02-01-2020,03:00,0.93830,R,ugm-3,9.86368,R,ugm-3,11.30238,R,ugm-3
02-01-2020,04:00,0.99884,R,ugm-3,8.74337,R,ugm-3,10.27489,R,ugm-3
02-01-2020,05:00,1.08964,R,ugm-3,8.13710,R,ugm-3,9.80785,R,ugm-3
02-01-2020,06:00,0.96857,R,ugm-3,8.55626,R,ugm-3,10.04137,R,ugm-3
02-01-2020,07:00,1.36205,R,ugm-3,9.02712,R,ugm-3,11.11556,R,ugm-3
02-01-2020,08:00,1.90687,R,ugm-3,13.32919,R,ugm-3,16.25301,R,ugm-3
02-01-2020,09:00,2.66356,R,ugm-3,16.23219,R,ugm-3,20.31626,R,ugm-3
02-01-2020,10:00,1.66473,R,ugm-3,12.39275,R,ugm-3,14.94530,R,ugm-3
02-01-2020,11:00,1.72526,R,ugm-3,10.71200,R,ugm-3,13.35736,R,ugm-3
02-01-2020,12:00,1.75553,R,ugm-3,10.29195,R,ugm-3,12.98373,R,ugm-3
02-01-2020,13:00,1.90687,R,ugm-3,10.71376,R,ugm-3,13.63758,R,ugm-3
02-01-2020,14:00,0.75669,R,ugm-3,10.51577,R,ugm-3,11.67601,R,ugm-3
02-01-2020,15:00,1.42258,R,ugm-3,11.40961,R,ugm-3,13.59088,R,ugm-3
02-01-2020,16:00,1.33178,R,ugm-3,11.50214,R,ugm-3,13.54417,R,ugm-3
02-01-2020,17:00,1.24098,R,ugm-3,13.41612,R,ugm-3,15.31893,R,ugm-3
02-01-2020,18:00,1.60419,R,ugm-3,13.79329,R,ugm-3,16.25301,R,ugm-3
02-01-2020,19:00,1.11991,R,ugm-3,11.82701,R,ugm-3,13.54417,R,ugm-3
02-01-2020,20:00,1.33178,R,ugm-3,10.19443,R,ugm-3,12.23646,R,ugm-3
02-01-2020,21:00,1.15017,R,ugm-3,8.93165,R,ugm-3,10.69523,R,ugm-3
02-01-2020,22:00,1.24098,R,ugm-3,8.23197,R,ugm-3,10.13478,R,ugm-3
02-01-2020,23:00,0.87776,R,ugm-3,7.48118,R,ugm-3,8.82707,R,ugm-3
02-01-2020,24:00,1.02910,R,ugm-3,7.80958,R,ugm-3,9.38751,R,ugm-3
03-01-2020,01:00,0.84762,R,ugm-3,8.78394,R,ugm-3,10.08361,R,ugm-3
03-01-2020,02:00,1.17053,R,ugm-3,7.85311,R,ugm-3,9.64790,R,ugm-3
03-01-2020,03:00,1.02926,R,ugm-3,9.29906,R,ugm-3,10.87723,R,ugm-3
03-01-2020,04:00,0.81735,R,ugm-3,14.15226,R,ugm-3,15.40552,R,ugm-3
03-01-2020,05:00,1.12007,R,ugm-3,10.42026,R,ugm-3,12.13768,R,ugm-3
03-01-2020,06:00,1.72552,R,ugm-3,9.30519,R,ugm-3,11.95095,R,ugm-3
03-01-2020,07:00,2.66396,R,ugm-3,7.11933,R,ugm-3,11.20401,R,ugm-3
03-01-2020,08:00,3.90513,R,ugm-3,13.33915,R,ugm-3,19.32692,R,ugm-3
03-01-2020,09:00,5.11602,R,ugm-3,19.23191,R,ugm-3,27.07636,R,ugm-3
03-01-2020,10:00,5.93337,R,ugm-3,19.14574,R,ugm-3,28.24345,R,ugm-3
03-01-2020,11:00,6.17555,R,ugm-3,17.79406,R,ugm-3,27.26310,R,ugm-3
03-01-2020,12:00,7.56807,R,ugm-3,16.45250,R,ugm-3,28.05671,R,ugm-3
03-01-2020,13:00,6.87181,R,ugm-3,13.78542,R,ugm-3,24.32204,R,ugm-3
03-01-2020,14:00,6.99290,R,ugm-3,22.04944,R,ugm-3,32.77174,R,ugm-3
03-01-2020,15:00,6.41773,R,ugm-3,17.51609,R,ugm-3,27.35646,R,ugm-3
03-01-2020,16:00,6.32691,R,ugm-3,17.93544,R,ugm-3,27.63656,R,ugm-3
03-01-2020,17:00,6.47827,R,ugm-3,27.50687,R,ugm-3,37.44007,R,ugm-3
03-01-2020,18:00,6.08473,R,ugm-3,27.26998,R,ugm-3,36.59977,R,ugm-3
03-01-2020,19:00,3.90513,R,ugm-3,18.24090,R,ugm-3,24.22868,R,ugm-3
03-01-2020,20:00,2.96668,R,ugm-3,20.94028,R,ugm-3,25.48913,R,ugm-3
03-01-2020,21:00,2.93641,R,ugm-3,21.36016,R,ugm-3,25.86259,R,ugm-3
03-01-2020,22:00,1.81634,R,ugm-3,25.13165,R,ugm-3,27.91666,R,ugm-3
03-01-2020,23:00,1.27144,R,ugm-3,23.63299,R,ugm-3,25.58250,R,ugm-3
03-01-2020,24:00,1.05953,R,ugm-3,10.37304,R,ugm-3,11.99763,R,ugm-3
04-01-2020,01:00,0.92849,R,ugm-3,8.65548,R,ugm-3,10.07915,R,ugm-3
04-01-2020,02:00,0.48443,R,ugm-3,17.67344,R,ugm-3,18.41622,R,ugm-3
04-01-2020,03:00,0.90831,R,ugm-3,10.87958,R,ugm-3,12.27230,R,ugm-3
04-01-2020,04:00,0.90831,R,ugm-3,11.34621,R,ugm-3,12.73892,R,ugm-3
04-01-2020,05:00,0.54498,R,ugm-3,2.33744,R,ugm-3,3.17307,R,ugm-3
04-01-2020,06:00,0.90831,R,ugm-3,3.22689,R,ugm-3,4.61961,R,ugm-3
04-01-2020,07:00,1.15052,R,ugm-3,3.92875,R,ugm-3,5.69285,R,ugm-3
04-01-2020,08:00,1.69550,R,ugm-3,5.47292,R,ugm-3,8.07265,R,ugm-3
04-01-2020,09:00,2.17993,R,ugm-3,6.64330,R,ugm-3,9.98582,R,ugm-3
04-01-2020,10:00,2.57353,R,ugm-3,8.65291,R,ugm-3,12.59893,R,ugm-3
04-01-2020,11:00,4.81402,R,ugm-3,15.29669,R,ugm-3,22.67808,R,ugm-3
04-01-2020,12:00,4.23876,R,ugm-3,14.96551,R,ugm-3,21.46485,R,ugm-3
04-01-2020,13:00,5.66177,R,ugm-3,17.40320,R,ugm-3,26.08446,R,ugm-3
04-01-2020,14:00,5.38928,R,ugm-3,16.70111,R,ugm-3,24.96456,R,ugm-3
04-01-2020,15:00,4.02682,R,ugm-3,12.44405,R,ugm-3,18.61843,R,ugm-3
04-01-2020,16:00,3.78461,R,ugm-3,15.28857,R,ugm-3,21.09155,R,ugm-3
04-01-2020,17:00,2.63409,R,ugm-3,16.95935,R,ugm-3,20.99823,R,ugm-3
04-01-2020,18:00,4.45070,R,ugm-3,24.48638,R,ugm-3,31.31069,R,ugm-3
04-01-2020,19:00,2.30104,R,ugm-3,24.18944,R,ugm-3,27.71766,R,ugm-3
04-01-2020,20:00,2.36159,R,ugm-3,14.81071,R,ugm-3,18.43177,R,ugm-3
04-01-2020,21:00,2.17993,R,ugm-3,19.56888,R,ugm-3,22.91140,R,ugm-3
04-01-2020,22:00,2.05883,R,ugm-3,21.57442,R,ugm-3,24.73124,R,ugm-3
04-01-2020,23:00,1.48357,R,ugm-3,21.80319,R,ugm-3,24.07796,R,ugm-3
04-01-2020,24:00,1.48357,R,ugm-3,35.75535,R,ugm-3,38.03012,R,ugm-3
05-01-2020,01:00,0.92863,R,ugm-3,6.22542,R,ugm-3,7.64930,R,ugm-3
05-01-2020,02:00,1.09013,R,ugm-3,6.91063,R,ugm-3,8.58214,R,ugm-3
05-01-2020,03:00,0.84788,R,ugm-3,12.69255,R,ugm-3,13.99262,R,ugm-3
05-01-2020,04:00,0.75704,R,ugm-3,5.41576,R,ugm-3,6.57653,R,ugm-3
05-01-2020,05:00,0.78732,R,ugm-3,4.62306,R,ugm-3,5.83026,R,ugm-3
05-01-2020,06:00,0.72675,R,ugm-3,3.82972,R,ugm-3,4.94406,R,ugm-3
05-01-2020,07:00,1.15069,R,ugm-3,4.81216,R,ugm-3,6.57653,R,ugm-3
05-01-2020,08:00,1.48379,R,ugm-3,6.58688,R,ugm-3,8.86199,R,ugm-3
05-01-2020,09:00,0.93872,R,ugm-3,6.02337,R,ugm-3,7.46273,R,ugm-3
05-01-2020,10:00,1.72604,R,ugm-3,7.33484,R,ugm-3,9.98140,R,ugm-3
05-01-2020,11:00,2.27111,R,ugm-3,8.87783,R,ugm-3,12.36015,R,ugm-3
05-01-2020,12:00,2.08942,R,ugm-3,10.74225,R,ugm-3,13.94598,R,ugm-3
05-01-2020,13:00,2.27111,R,ugm-3,9.76403,R,ugm-3,13.24634,R,ugm-3
05-01-2020,14:00,3.27039,R,ugm-3,9.25794,R,ugm-3,14.27247,R,ugm-3
05-01-2020,15:00,2.08942,R,ugm-3,10.55568,R,ugm-3,13.75941,R,ugm-3
05-01-2020,16:00,2.93730,R,ugm-3,11.77429,R,ugm-3,16.27808,R,ugm-3
05-01-2020,17:00,1.63520,R,ugm-3,10.73908,R,ugm-3,13.24634,R,ugm-3
05-01-2020,18:00,2.21054,R,ugm-3,9.53040,R,ugm-3,12.91985,R,ugm-3
05-01-2020,19:00,1.99857,R,ugm-3,8.03637,R,ugm-3,11.10081,R,ugm-3
05-01-2020,20:00,1.12041,R,ugm-3,6.39778,R,ugm-3,8.11572,R,ugm-3
05-01-2020,21:00,1.39295,R,ugm-3,9.66462,R,ugm-3,11.80044,R,ugm-3
05-01-2020,22:00,1.21126,R,ugm-3,11.38911,R,ugm-3,13.24634,R,ugm-3
05-01-2020,23:00,0.93872,R,ugm-3,9.80138,R,ugm-3,11.24074,R,ugm-3
05-01-2020,24:00,0.81760,R,ugm-3,7.70164,R,ugm-3,8.95528,R,ugm-3
06-01-2020,01:00,0.96915,R,ugm-3,6.15990,R,ugm-3,7.64591,R,ugm-3
06-01-2020,02:00,0.68648,R,ugm-3,3.79603,R,ugm-3,4.84863,R,ugm-3
06-01-2020,03:00,0.87829,R,ugm-3,3.31544,R,ugm-3,4.66214,R,ugm-3
06-01-2020,04:00,0.51486,R,ugm-3,3.96594,R,ugm-3,4.75538,R,ugm-3
06-01-2020,05:00,0.99944,R,ugm-3,4.99455,R,ugm-3,6.52700,R,ugm-3
06-01-2020,06:00,0.78744,R,ugm-3,4.52705,R,ugm-3,5.73443,R,ugm-3
06-01-2020,07:00,0.60572,R,ugm-3,6.71715,R,ugm-3,7.64591,R,ugm-3
06-01-2020,08:00,1.36287,R,ugm-3,10.82442,R,ugm-3,12.91413,R,ugm-3
06-01-2020,09:00,2.12002,R,ugm-3,15.81750,R,ugm-3,19.06815,R,ugm-3
06-01-2020,10:00,1.51430,R,ugm-3,13.43614,R,ugm-3,15.75803,R,ugm-3
06-01-2020,11:00,1.18115,R,ugm-3,10.77670,R,ugm-3,12.58778,R,ugm-3
06-01-2020,12:00,1.18115,R,ugm-3,10.73008,R,ugm-3,12.54115,R,ugm-3
06-01-2020,13:00,2.02916,R,ugm-3,13.71899,R,ugm-3,16.83032,R,ugm-3
06-01-2020,14:00,1.15087,R,ugm-3,14.64609,R,ugm-3,16.41073,R,ugm-3
06-01-2020,15:00,1.18115,R,ugm-3,15.20573,R,ugm-3,17.01681,R,ugm-3
06-01-2020,16:00,4.57318,R,ugm-3,14.99318,R,ugm-3,22.00530,R,ugm-3
06-01-2020,17:00,1.93830,R,ugm-3,18.41166,R,ugm-3,21.38368,R,ugm-3
06-01-2020,18:00,3.93718,R,ugm-3,30.18790,R,ugm-3,36.22482,R,ugm-3
06-01-2020,19:00,4.17946,R,ugm-3,39.14068,R,ugm-3,45.54910,R,ugm-3
06-01-2020,20:00,3.81603,R,ugm-3,36.52768,R,ugm-3,42.37885,R,ugm-3
06-01-2020,21:00,2.90745,R,ugm-3,29.80869,R,ugm-3,34.26672,R,ugm-3
06-01-2020,22:00,2.21088,R,ugm-3,29.89771,R,ugm-3,33.28767,R,ugm-3
06-01-2020,23:00,7.57149,R,ugm-3,29.46399,R,ugm-3,41.07345,R,ugm-3
06-01-2020,24:00,4.87604,R,ugm-3,24.92537,R,ugm-3,32.40187,R,ugm-3
07-01-2020,01:00,2.94828,R,ugm-3,22.81846,R,ugm-3,27.33909,R,ugm-3
07-01-2020,02:00,1.97898,R,ugm-3,25.17458,R,ugm-3,28.20897,R,ugm-3
07-01-2020,03:00,0.90872,R,ugm-3,13.37909,R,ugm-3,14.77243,R,ugm-3
07-01-2020,04:00,0.72697,R,ugm-3,8.57828,R,ugm-3,9.69295,R,ugm-3
07-01-2020,05:00,0.75726,R,ugm-3,6.34160,R,ugm-3,7.50272,R,ugm-3
07-01-2020,06:00,0.96930,R,ugm-3,6.99510,R,ugm-3,8.48133,R,ugm-3
07-01-2020,07:00,1.12075,R,ugm-3,9.93172,R,ugm-3,11.65018,R,ugm-3
07-01-2020,08:00,2.02947,R,ugm-3,15.90129,R,ugm-3,19.01310,R,ugm-3
07-01-2020,09:00,3.05934,R,ugm-3,16.93181,R,ugm-3,21.62274,R,ugm-3
07-01-2020,10:00,1.99918,R,ugm-3,18.69718,R,ugm-3,21.76254,R,ugm-3
07-01-2020,11:00,1.51453,R,ugm-3,16.17825,R,ugm-3,18.50049,R,ugm-3
07-01-2020,12:00,1.06017,R,ugm-3,14.77789,R,ugm-3,16.40346,R,ugm-3
07-01-2020,13:00,1.69627,R,ugm-3,16.59859,R,ugm-3,19.19950,R,ugm-3
07-01-2020,14:00,1.90830,R,ugm-3,17.29869,R,ugm-3,20.22472,R,ugm-3
07-01-2020,15:00,1.87801,R,ugm-3,16.08692,R,ugm-3,18.96650,R,ugm-3
07-01-2020,16:00,1.84772,R,ugm-3,16.17996,R,ugm-3,19.01310,R,ugm-3
07-01-2020,17:00,1.99918,R,ugm-3,15.48173,R,ugm-3,18.54709,R,ugm-3
07-01-2020,18:00,2.09005,R,ugm-3,14.55018,R,ugm-3,17.75488,R,ugm-3
07-01-2020,19:00,1.93860,R,ugm-3,13.15138,R,ugm-3,16.12385,R,ugm-3
07-01-2020,20:00,2.05976,R,ugm-3,10.91517,R,ugm-3,14.07342,R,ugm-3
07-01-2020,21:00,1.21162,R,ugm-3,6.06433,R,ugm-3,7.92212,R,ugm-3
07-01-2020,22:00,0.72697,R,ugm-3,6.20164,R,ugm-3,7.31632,R,ugm-3
07-01-2020,23:00,0.75726,R,ugm-3,5.45618,R,ugm-3,6.61730,R,ugm-3
07-01-2020,24:00,1.18133,R,ugm-3,19.95119,R,ugm-3,21.76254,R,ugm-3
08-01-2020,01:00,0.72708,R,ugm-3,9.69173,R,ugm-3,10.80658,R,ugm-3
08-01-2020,02:00,0.56551,R,ugm-3,11.18161,R,ugm-3,12.04871,R,ugm-3
08-01-2020,03:00,1.06033,R,ugm-3,26.60171,R,ugm-3,28.22752,R,ugm-3
08-01-2020,04:00,0.72708,R,ugm-3,7.59563,R,ugm-3,8.71047,R,ugm-3
08-01-2020,05:00,1.27239,R,ugm-3,8.57612,R,ugm-3,10.52709,R,ugm-3
08-01-2020,06:00,1.57535,R,ugm-3,11.55852,R,ugm-3,13.97402,R,ugm-3
08-01-2020,07:00,2.60538,R,ugm-3,14.63717,R,ugm-3,18.63202,R,ugm-3
08-01-2020,08:00,3.33246,R,ugm-3,28.70742,R,ugm-3,33.81713,R,ugm-3
08-01-2020,09:00,7.17994,R,ugm-3,32.21721,R,ugm-3,43.22630,R,ugm-3
08-01-2020,10:00,3.57482,R,ugm-3,19.95140,R,ugm-3,25.43271,R,ugm-3
08-01-2020,11:00,4.08984,R,ugm-3,18.18354,R,ugm-3,24.45453,R,ugm-3
08-01-2020,12:00,5.99843,R,ugm-3,24.06070,R,ugm-3,33.25817,R,ugm-3
08-01-2020,13:00,3.75659,R,ugm-3,15.20100,R,ugm-3,20.96103,R,ugm-3
08-01-2020,14:00,3.36276,R,ugm-3,19.34496,R,ugm-3,24.50111,R,ugm-3
08-01-2020,15:00,3.93836,R,ugm-3,18.64870,R,ugm-3,24.68743,R,ugm-3
08-01-2020,16:00,6.60433,R,ugm-3,29.23365,R,ugm-3,39.36015,R,ugm-3
08-01-2020,17:00,2.99922,R,ugm-3,31.08160,R,ugm-3,35.68033,R,ugm-3
08-01-2020,18:00,10.11856,R,ugm-3,52.63172,R,ugm-3,68.14663,R,ugm-3
08-01-2020,19:00,13.48132,R,ugm-3,62.10171,R,ugm-3,82.77277,R,ugm-3
08-01-2020,20:00,2.09036,R,ugm-3,32.28883,R,ugm-3,35.49401,R,ugm-3
08-01-2020,21:00,2.18125,R,ugm-3,22.18134,R,ugm-3,25.52587,R,ugm-3
08-01-2020,22:00,4.02925,R,ugm-3,25.63609,R,ugm-3,31.81418,R,ugm-3
08-01-2020,23:00,4.81692,R,ugm-3,25.22020,R,ugm-3,32.60604,R,ugm-3
08-01-2020,24:00,2.45390,R,ugm-3,10.63064,R,ugm-3,14.39324,R,ugm-3
09-01-2020,01:00,1.05039,R,ugm-3,8.50834,R,ugm-3,10.11891,R,ugm-3
09-01-2020,02:00,1.17159,R,ugm-3,12.79220,R,ugm-3,14.58861,R,ugm-3
09-01-2020,03:00,1.39378,R,ugm-3,12.43599,R,ugm-3,14.57309,R,ugm-3
09-01-2020,04:00,0.84839,R,ugm-3,4.28628,R,ugm-3,5.58713,R,ugm-3
09-01-2020,05:00,1.15139,R,ugm-3,3.91481,R,ugm-3,5.68025,R,ugm-3
09-01-2020,06:00,1.03019,R,ugm-3,4.19376,R,ugm-3,5.77337,R,ugm-3
09-01-2020,07:00,1.42408,R,ugm-3,6.19713,R,ugm-3,8.38069,R,ugm-3
09-01-2020,08:00,2.48457,R,ugm-3,6.61968,R,ugm-3,10.42931,R,ugm-3
09-01-2020,09:00,2.18158,R,ugm-3,8.48105,R,ugm-3,11.82609,R,ugm-3
09-01-2020,10:00,2.30277,R,ugm-3,8.90049,R,ugm-3,12.43136,R,ugm-3
09-01-2020,11:00,2.81787,R,ugm-3,17.18977,R,ugm-3,21.51044,R,ugm-3
09-01-2020,12:00,3.51476,R,ugm-3,11.09280,R,ugm-3,16.48203,R,ugm-3
09-01-2020,13:00,3.60566,R,ugm-3,12.53645,R,ugm-3,18.06505,R,ugm-3
09-01-2020,14:00,4.21165,R,ugm-3,14.21460,R,ugm-3,20.67237,R,ugm-3
09-01-2020,15:00,7.66581,R,ugm-3,23.95698,R,ugm-3,35.71106,R,ugm-3
09-01-2020,16:00,9.60499,R,ugm-3,30.57485,R,ugm-3,45.30229,R,ugm-3
09-01-2020,17:00,13.05915,R,ugm-3,28.58426,R,ugm-3,48.60801,R,ugm-3
09-01-2020,18:00,7.36282,R,ugm-3,19.95186,R,ugm-3,31.24136,R,ugm-3
09-01-2020,19:00,5.93873,R,ugm-3,19.71434,R,ugm-3,28.82027,R,ugm-3
09-01-2020,20:00,3.45416,R,ugm-3,18.86802,R,ugm-3,24.16433,R,ugm-3
09-01-2020,21:00,3.81776,R,ugm-3,23.24581,R,ugm-3,29.09963,R,ugm-3
09-01-2020,22:00,2.42397,R,ugm-3,22.82215,R,ugm-3,26.53886,R,ugm-3
09-01-2020,23:00,1.60588,R,ugm-3,19.18780,R,ugm-3,21.65012,R,ugm-3
09-01-2020,24:00,1.27259,R,ugm-3,20.16444,R,ugm-3,22.11571,R,ugm-3
10-01-2020,01:00,0.96974,R,ugm-3,13.90190,R,ugm-3,15.38881,R,ugm-3
10-01-2020,02:00,1.09095,R,ugm-3,8.68986,R,ugm-3,10.36263,R,ugm-3
10-01-2020,03:00,0.60608,R,ugm-3,6.14457,R,ugm-3,7.07389,R,ugm-3
10-01-2020,04:00,0.45456,R,ugm-3,8.79692,R,ugm-3,9.49390,R,ugm-3
10-01-2020,05:00,1.69704,R,ugm-3,7.40374,R,ugm-3,10.00583,R,ugm-3
10-01-2020,06:00,2.96981,R,ugm-3,10.38528,R,ugm-3,14.93893,R,ugm-3
10-01-2020,07:00,5.00020,R,ugm-3,17.69675,R,ugm-3,25.36361,R,ugm-3
10-01-2020,08:00,16.90976,R,ugm-3,49.04597,R,ugm-3,74.97390,R,ugm-3
10-01-2020,09:00,20.33413,R,ugm-3,58.31542,R,ugm-3,89.49399,R,ugm-3
10-01-2020,10:00,12.97021,R,ugm-3,43.12607,R,ugm-3,63.01345,R,ugm-3
10-01-2020,11:00,9.33370,R,ugm-3,35.71767,R,ugm-3,50.02914,R,ugm-3
10-01-2020,12:00,9.51552,R,ugm-3,34.83387,R,ugm-3,49.42414,R,ugm-3
10-01-2020,13:00,4.63655,R,ugm-3,21.51205,R,ugm-3,28.62132,R,ugm-3
10-01-2020,14:00,4.42442,R,ugm-3,18.20729,R,ugm-3,24.99130,R,ugm-3
10-01-2020,15:00,,,,,,,,,
10-01-2020,16:00,5.37395,R,ugm-3,23.46845,R,ugm-3,31.70839,R,ugm-3
10-01-2020,17:00,3.39407,R,ugm-3,31.00296,R,ugm-3,36.20713,R,ugm-3
10-01-2020,18:00,4.18198,R,ugm-3,28.44523,R,ugm-3,34.85751,R,ugm-3
10-01-2020,19:00,2.36373,R,ugm-3,31.04702,R,ugm-3,34.67136,R,ugm-3
10-01-2020,20:00,0.96974,R,ugm-3,21.13092,R,ugm-3,22.61783,R,ugm-3
10-01-2020,21:00,1.33339,R,ugm-3,15.40753,R,ugm-3,17.45203,R,ugm-3
10-01-2020,22:00,0.63639,R,ugm-3,12.10160,R,ugm-3,13.07738,R,ugm-3
10-01-2020,23:00,0.93943,R,ugm-3,9.86847,R,ugm-3,11.30891,R,ugm-3
10-01-2020,24:00,0.72730,R,ugm-3,8.09949,R,ugm-3,9.21467,R,ugm-3
11-01-2020,01:00,0.76783,R,ugm-3,8.13829,R,ugm-3,9.31561,R,ugm-3
11-01-2020,02:00,0.96989,R,ugm-3,4.97169,R,ugm-3,6.45882,R,ugm-3
11-01-2020,03:00,0.81834,R,ugm-3,4.75380,R,ugm-3,6.00857,R,ugm-3
11-01-2020,04:00,0.66680,R,ugm-3,3.63540,R,ugm-3,4.65780,R,ugm-3
11-01-2020,05:00,0.63649,R,ugm-3,3.49556,R,ugm-3,4.47149,R,ugm-3
11-01-2020,06:00,1.00019,R,ugm-3,4.94074,R,ugm-3,6.47435,R,ugm-3
11-01-2020,07:00,0.87896,R,ugm-3,5.40610,R,ugm-3,6.75382,R,ugm-3
11-01-2020,08:00,0.81834,R,ugm-3,4.70722,R,ugm-3,5.96199,R,ugm-3
11-01-2020,09:00,1.09112,R,ugm-3,5.12737,R,ugm-3,6.80040,R,ugm-3
11-01-2020,10:00,1.72761,R,ugm-3,6.01455,R,ugm-3,8.66352,R,ugm-3
11-01-2020,11:00,1.03050,R,ugm-3,6.71081,R,ugm-3,8.29089,R,ugm-3
11-01-2020,12:00,1.24267,R,ugm-3,6.99101,R,ugm-3,8.89641,R,ugm-3
11-01-2020,13:00,1.51545,R,ugm-3,8.76192,R,ugm-3,11.08558,R,ugm-3
11-01-2020,14:00,2.45502,R,ugm-3,9.46385,R,ugm-3,13.22816,R,ugm-3
11-01-2020,15:00,1.69730,R,ugm-3,9.64754,R,ugm-3,12.25003,R,ugm-3
11-01-2020,16:00,1.27297,R,ugm-3,10.20500,R,ugm-3,12.15687,R,ugm-3
11-01-2020,17:00,2.15193,R,ugm-3,9.18333,R,ugm-3,12.48292,R,ugm-3
11-01-2020,18:00,4.78881,R,ugm-3,8.35406,R,ugm-3,15.69680,R,ugm-3
11-01-2020,19:00,1.78823,R,ugm-3,7.92447,R,ugm-3,10.66637,R,ugm-3
11-01-2020,20:00,1.42452,R,ugm-3,7.22453,R,ugm-3,9.40877,R,ugm-3
11-01-2020,21:00,1.06081,R,ugm-3,6.38487,R,ugm-3,8.01142,R,ugm-3
11-01-2020,22:00,0.90927,R,ugm-3,5.21989,R,ugm-3,6.61408,R,ugm-3
11-01-2020,23:00,0.84865,R,ugm-3,5.03337,R,ugm-3,6.33461,R,ugm-3
11-01-2020,24:00,0.96989,R,ugm-3,4.61459,R,ugm-3,6.10172,R,ugm-3
12-01-2020,01:00,0.76795,R,ugm-3,4.41658,R,ugm-3,5.59408,R,ugm-3
12-01-2020,02:00,0.52544,R,ugm-3,3.85608,R,ugm-3,4.66174,R,ugm-3
12-01-2020,03:00,1.15192,R,ugm-3,6.11208,R,ugm-3,7.87833,R,ugm-3
12-01-2020,04:00,1.42474,R,ugm-3,5.18097,R,ugm-3,7.36554,R,ugm-3
12-01-2020,05:00,1.09129,R,ugm-3,4.43359,R,ugm-3,6.10687,R,ugm-3
12-01-2020,06:00,0.87910,R,ugm-3,9.18760,R,ugm-3,10.53552,R,ugm-3
12-01-2020,07:00,1.03066,R,ugm-3,16.27412,R,ugm-3,17.85445,R,ugm-3
12-01-2020,08:00,1.21254,R,ugm-3,17.02082,R,ugm-3,18.88003,R,ugm-3
12-01-2020,09:00,1.27317,R,ugm-3,8.86306,R,ugm-3,10.81523,R,ugm-3
12-01-2020,10:00,1.42474,R,ugm-3,7.93140,R,ugm-3,10.11597,R,ugm-3
12-01-2020,11:00,1.84913,R,ugm-3,8.86566,R,ugm-3,11.70096,R,ugm-3
12-01-2020,12:00,2.69791,R,ugm-3,12.59889,R,ugm-3,16.73563,R,ugm-3
12-01-2020,13:00,3.97108,R,ugm-3,10.87981,R,ugm-3,16.96872,R,ugm-3
12-01-2020,14:00,3.09199,R,ugm-3,9.85025,R,ugm-3,14.59123,R,ugm-3
12-01-2020,15:00,2.00070,R,ugm-3,8.91297,R,ugm-3,11.98066,R,ugm-3
12-01-2020,16:00,2.42509,R,ugm-3,7.93592,R,ugm-3,11.65434,R,ugm-3
12-01-2020,17:00,1.84913,R,ugm-3,16.55753,R,ugm-3,19.39282,R,ugm-3
12-01-2020,18:00,4.45610,R,ugm-3,20.43856,R,ugm-3,27.27115,R,ugm-3
12-01-2020,19:00,3.66795,R,ugm-3,24.39747,R,ugm-3,30.02158,R,ugm-3
12-01-2020,20:00,2.21289,R,ugm-3,14.50801,R,ugm-3,17.90106,R,ugm-3
12-01-2020,21:00,1.18223,R,ugm-3,10.96043,R,ugm-3,12.77316,R,ugm-3
12-01-2020,22:00,0.75784,R,ugm-3,11.65777,R,ugm-3,12.81977,R,ugm-3
12-01-2020,23:00,0.90941,R,ugm-3,10.95919,R,ugm-3,12.35360,R,ugm-3
12-01-2020,24:00,0.45470,R,ugm-3,11.09699,R,ugm-3,11.79419,R,ugm-3
13-01-2020,01:00,0.40424,R,ugm-3,6.53419,R,ugm-3,7.15402,R,ugm-3
13-01-2020,02:00,0.72764,R,ugm-3,5.54065,R,ugm-3,6.65635,R,ugm-3
13-01-2020,03:00,0.84891,R,ugm-3,4.90369,R,ugm-3,6.20534,R,ugm-3
13-01-2020,04:00,0.66700,R,ugm-3,5.22927,R,ugm-3,6.25199,R,ugm-3
13-01-2020,05:00,0.93987,R,ugm-3,7.23703,R,ugm-3,8.67814,R,ugm-3
13-01-2020,06:00,1.15210,R,ugm-3,8.21801,R,ugm-3,9.98453,R,ugm-3
13-01-2020,07:00,0.90955,R,ugm-3,11.62259,R,ugm-3,13.01721,R,ugm-3
13-01-2020,08:00,2.03133,R,ugm-3,18.34741,R,ugm-3,21.46207,R,ugm-3
13-01-2020,09:00,4.21424,R,ugm-3,32.03000,R,ugm-3,38.49175,R,ugm-3
13-01-2020,10:00,3.94138,R,ugm-3,33.75477,R,ugm-3,39.79813,R,ugm-3
13-01-2020,11:00,2.33451,R,ugm-3,19.60883,R,ugm-3,23.18836,R,ugm-3
13-01-2020,12:00,1.21273,R,ugm-3,13.11729,R,ugm-3,14.97679,R,ugm-3
13-01-2020,13:00,1.66751,R,ugm-3,9.62058,R,ugm-3,12.17739,R,ugm-3
13-01-2020,14:00,0.78828,R,ugm-3,7.79606,R,ugm-3,9.00474,R,ugm-3
13-01-2020,15:00,1.18241,R,ugm-3,8.87137,R,ugm-3,10.68438,R,ugm-3
13-01-2020,16:00,1.18241,R,ugm-3,10.17775,R,ugm-3,11.99076,R,ugm-3
13-01-2020,17:00,1.39464,R,ugm-3,9.52575,R,ugm-3,11.66417,R,ugm-3
13-01-2020,18:00,1.00050,R,ugm-3,8.87035,R,ugm-3,10.40444,R,ugm-3
13-01-2020,19:00,1.87973,R,ugm-3,13.16767,R,ugm-3,16.04989,R,ugm-3
13-01-2020,20:00,1.42496,R,ugm-3,8.45281,R,ugm-3,10.63772,R,ugm-3
13-01-2020,21:00,1.48560,R,ugm-3,9.33963,R,ugm-3,11.61751,R,ugm-3
13-01-2020,22:00,0.93987,R,ugm-3,7.84357,R,ugm-3,9.28468,R,ugm-3
13-01-2020,23:00,0.69732,R,ugm-3,7.18902,R,ugm-3,8.25823,R,ugm-3
13-01-2020,24:00,0.66700,R,ugm-3,5.78915,R,ugm-3,6.81187,R,ugm-3
14-01-2020,01:00,0.92991,R,ugm-3,4.92482,R,ugm-3,6.35065,R,ugm-3
14-01-2020,02:00,0.76818,R,ugm-3,4.79922,R,ugm-3,5.97709,R,ugm-3
14-01-2020,03:00,0.57614,R,ugm-3,6.12100,R,ugm-3,7.00440,R,ugm-3
14-01-2020,04:00,0.57614,R,ugm-3,4.34655,R,ugm-3,5.22995,R,ugm-3
14-01-2020,05:00,0.75807,R,ugm-3,3.27375,R,ugm-3,4.43612,R,ugm-3
14-01-2020,06:00,0.60646,R,ugm-3,5.42076,R,ugm-3,6.35065,R,ugm-3
14-01-2020,07:00,1.27357,R,ugm-3,11.72915,R,ugm-3,13.68192,R,ugm-3
14-01-2020,08:00,1.60712,R,ugm-3,17.98862,R,ugm-3,20.45284,R,ugm-3
14-01-2020,09:00,2.03164,R,ugm-3,18.92536,R,ugm-3,22.04050,R,ugm-3
14-01-2020,10:00,1.42518,R,ugm-3,18.68785,R,ugm-3,20.87310,R,ugm-3
14-01-2020,11:00,1.88002,R,ugm-3,17.61687,R,ugm-3,20.49953,R,ugm-3
14-01-2020,12:00,1.91035,R,ugm-3,17.99064,R,ugm-3,20.91980,R,ugm-3
14-01-2020,13:00,1.57679,R,ugm-3,14.43953,R,ugm-3,16.85725,R,ugm-3
14-01-2020,14:00,1.12195,R,ugm-3,9.15986,R,ugm-3,10.88016,R,ugm-3
14-01-2020,15:00,0.94001,R,ugm-3,8.83178,R,ugm-3,10.27311,R,ugm-3
14-01-2020,16:00,1.24324,R,ugm-3,9.06728,R,ugm-3,10.97355,R,ugm-3
14-01-2020,17:00,1.18260,R,ugm-3,7.99287,R,ugm-3,9.80615,R,ugm-3
14-01-2020,18:00,1.81938,R,ugm-3,10.89224,R,ugm-3,13.68192,R,ugm-3
14-01-2020,19:00,1.84970,R,ugm-3,9.91183,R,ugm-3,12.74800,R,ugm-3
14-01-2020,20:00,0.90969,R,ugm-3,6.16991,R,ugm-3,7.56475,R,ugm-3
14-01-2020,21:00,1.24324,R,ugm-3,6.96596,R,ugm-3,8.87224,R,ugm-3
14-01-2020,22:00,1.09163,R,ugm-3,8.45922,R,ugm-3,10.13303,R,ugm-3
14-01-2020,23:00,1.24324,R,ugm-3,17.28577,R,ugm-3,19.19205,R,ugm-3
14-01-2020,24:00,1.27357,R,ugm-3,16.49214,R,ugm-3,18.44491,R,ugm-3
15-01-2020,01:00,1.41529,R,ugm-3,19.45277,R,ugm-3,21.62286,R,ugm-3
15-01-2020,02:00,0.64699,R,ugm-3,4.99008,R,ugm-3,5.98212,R,ugm-3
15-01-2020,03:00,0.90983,R,ugm-3,5.75545,R,ugm-3,7.15050,R,ugm-3
15-01-2020,04:00,0.60655,R,ugm-3,3.88370,R,ugm-3,4.81373,R,ugm-3
15-01-2020,05:00,0.87950,R,ugm-3,4.58683,R,ugm-3,5.93538,R,ugm-3
15-01-2020,06:00,1.57704,R,ugm-3,6.78876,R,ugm-3,9.20685,R,ugm-3
15-01-2020,07:00,1.33442,R,ugm-3,10.05836,R,ugm-3,12.10444,R,ugm-3
15-01-2020,08:00,1.66802,R,ugm-3,14.26710,R,ugm-3,16.82470,R,ugm-3
15-01-2020,09:00,2.00163,R,ugm-3,19.27035,R,ugm-3,22.33947,R,ugm-3
15-01-2020,10:00,1.45573,R,ugm-3,19.45309,R,ugm-3,21.68517,R,ugm-3
15-01-2020,11:00,2.33523,R,ugm-3,16.79595,R,ugm-3,20.37658,R,ugm-3
15-01-2020,12:00,2.82047,R,ugm-3,11.33165,R,ugm-3,15.65632,R,ugm-3
15-01-2020,13:00,2.75982,R,ugm-3,9.13463,R,ugm-3,13.36629,R,ugm-3
15-01-2020,14:00,2.88113,R,ugm-3,11.89294,R,ugm-3,16.31061,R,ugm-3
15-01-2020,15:00,2.33523,R,ugm-3,8.47707,R,ugm-3,12.05770,R,ugm-3
15-01-2020,16:00,2.42621,R,ugm-3,14.31968,R,ugm-3,18.03982,R,ugm-3
15-01-2020,17:00,2.06228,R,ugm-3,14.64402,R,ugm-3,17.80614,R,ugm-3
15-01-2020,18:00,2.15326,R,ugm-3,16.70108,R,ugm-3,20.00270,R,ugm-3
15-01-2020,19:00,1.66802,R,ugm-3,14.03343,R,ugm-3,16.59103,R,ugm-3
15-01-2020,20:00,1.36475,R,ugm-3,12.72251,R,ugm-3,14.81508,R,ugm-3
15-01-2020,21:00,1.39507,R,ugm-3,12.72274,R,ugm-3,14.86182,R,ugm-3